Location: Unspecified
(0.0000°N, 0.0000°E)
Time: 19:34:46
(UTC+01:00)

Transit 2A - Visible Passes

Search period start: 23 February 2018 00:00
Search period end: 05 March 2018 00:00
Orbit: 594 x 965 km, 66.7° (Epoch: 22 February)

Date Brightness Start Highest point End Pass type
(mag) Time Alt. Az. Time Alt. Az. Time Alt. Az.
23 Feb 7.1 20:48:53 10° SW 20:54:46 53° WNW 21:00:20 13° N visible
24 Feb 6.4 20:14:41 10° SSW 20:20:44 84° WNW 20:27:06 10° NNE visible
25 Feb 6.5 19:40:47 10° S 19:46:43 62° ESE 19:52:59 10° NNE visible
25 Feb 9.2 21:28:00 10° W 21:29:54 11° WNW 21:31:48 10° NW visible
26 Feb 8.9 20:51:35 10° WSW 20:55:48 19° WNW 21:00:08 10° NNW visible
27 Feb 8.3 20:16:27 10° SW 20:21:43 30° WNW 20:27:11 10° N visible
28 Feb 7.5 19:41:51 10° SW 19:47:40 48° WNW 19:53:46 10° N visible
01 Mar 7.6 06:35:53 10° N 06:39:55 31° ENE 06:43:46 10° SE visible
02 Mar 8.4 06:02:51 10° NNE 06:05:52 17° ENE 06:08:46 10° ESE visible
03 Mar 9.1 19:44:50 10° WSW 19:48:43 17° WNW 19:52:41 10° NNW visible
04 Mar 5.5 06:36:18 10° NNW 06:40:46 63° WSW 06:45:01 10° S visible
